Regional Weather Roundup
Issued by NWS Little Rock, AR

Home | Current Version | Previous Version | Text Only | Print | Product List | Glossary On
Versions: 1 2 3 4 5 6 7 8 9 10 11 12 13 14 15 16 17 18 19 20 21 22 23 24 25 26 27 28 29 30 31 32 33 34 35 36 37 38 39 40 41 42 43 44 45 46 47 48 49 50
000
ASUS44 KLZK 261505
RWRLZK

WEATHER ROUNDUP FOR ARKANSAS
NATIONAL WEATHER SERVICE LITTLE ROCK AR
1000 AM CDT WED APR 26 2017

NOTE: "FAIR" INDICATES FEW OR NO CLOUDS BELOW 12,000 FEET WITH NO
SIGNIFICANT WEATHER AND/OR OBSTRUCTIONS TO VISIBILITY.

ARZ001-003-010-029-261600-
NORTHWEST ARKANSAS

CITY           SKY/WX    TMP DP  RH WIND       PRES   REMARKS
FAYETTEVILLE   LGT RAIN  58  58 100 E10       29.47F
FORT SMITH     TSTM      62  59  90 S14G21    29.54R FOG
HARRISON       TSTM      56  56 100 S3        29.56R VSB 1
BENTONVILLE    CLOUDY    57  55  94 CALM      29.52R
ROGERS         LGT RAIN  58  57  97 E8G17     29.50R
SILOAM SPGS    CLOUDY    52  46  82 NW15      29.53R
HIGHFILL       CLOUDY    58  57  97 NW13G18   29.52R
SPRINGDALE     RAIN      59  59 100 E17       29.46F FOG
$$

ARZ004-005-016-261600-
NORTH CENTRAL ARKANSAS

CITY           SKY/WX    TMP DP  RH WIND       PRES   REMARKS
BATESVILLE     CLOUDY   N/A N/A N/A S12G20    29.57R
FLIPPIN        CLOUDY    55  52  88 NE6       29.55S
MTN HOME       HVY RAIN  53  52  96 MISG      29.57S FOG
$$

ARZ040-041-261600-
WEST CENTRAL ARKANSAS

CITY           SKY/WX    TMP DP  RH WIND       PRES   REMARKS
MENA           CLOUDY    63  61  94 SW5       29.53F THUNDER VSB 3/4
MOUNT IDA      CLOUDY    71  66  84 VRB7      29.49S
$$

ARZ009-017-025-026-028-261600-
NORTHEAST ARKANSAS

CITY           SKY/WX    TMP DP  RH WIND       PRES   REMARKS
CORNING        FAIR      73  64  73 S15       29.59R
JONESBORO      CLOUDY    70  62  76 S16       29.60R
NEWPORT        PTSUNNY   70  63  78 MISG        N/A
WALNUT RIDGE   MOSUNNY   72  61  68 S20G25    29.58R
BLYTHEVILLE    CLOUDY    73  64  73 S15       29.62R
$$

ARZ022-023-033-042-044-261600-
CENTRAL ARKANSAS

CITY           SKY/WX    TMP DP  RH WIND       PRES   REMARKS
LITTLE ROCK    CLOUDY    69  66  90 SE15G22   29.57S
N LITTLE ROCK    N/A     69  65  86 S10G20    29.57R
JACKSONVILLE   CLOUDY    72  66  82 SE15      29.57R
CONWAY           N/A     72  66  83 SE18      29.52S
SEARCY         CLOUDY    71  66  84 S14       29.60S
HOT SPRINGS    CLOUDY    72  68  87 VRB7G20   29.53S
RUSSELLVILLE   CLOUDY    71  65  81 S9        29.50S
$$

ARZ036-261600-
EAST ARKANSAS

CITY           SKY/WX    TMP DP  RH WIND       PRES   REMARKS
WEST MEMPHIS   MOSUNNY   73  65  75 S21       29.62S
$$

ARZ050-053-066-070-073-261600-
SOUTHWEST ARKANSAS

CITY           SKY/WX    TMP DP  RH WIND       PRES   REMARKS
ARKADELPHIA      N/A     73  68  84 S13       29.55R
CAMDEN         CLOUDY    72  64  78 SE9       29.58R
TEXARKANA      CLOUDY    72  69  90 S21G28    29.48F
EL DORADO        N/A    N/A N/A N/A MISG      29.60R
$$

ARZ056-057-069-261600-
SOUTHEAST ARKANSAS

CITY           SKY/WX    TMP DP  RH WIND       PRES   REMARKS
PINE BLUFF     CLOUDY    69  64  84 SE14      29.60R
STUTTGART      CLOUDY    70  55  60 S18G25    29.62R
MONTICELLO     CLOUDY    67  63  87 SE9G20    29.62F

$$





USA.gov is the U.S. government's official web portal to all federal, state and local government web resources and services.